| time (UTC) | temp F | wind direction | speed MPH | gust MPH | rain 1hr in | rain 24hr in | rain mn in | humidity % | barometer mb |
| 20260906074604 | 69 | 325 | 0.0 | 0.0 | 0.00 | 0.05 | 0.00 | 95 | 1008.4 |
| 20260906073105 | 69 | 325 | 0.0 | 0.0 | 0.00 | 0.05 | 0.00 | 95 | 1008.3 |
| 20260906071549 | 69 | 325 | 0.0 | 0.0 | 0.00 | 0.05 | 0.00 | 95 | 1008.3 |
| 20260906070047 | 69 | 325 | 0.0 | 0.0 | 0.00 | 0.05 | 0.00 | 95 | 1008.6 |
| 20260906064546 | 69 | 325 | 0.0 | 0.0 | 0.00 | 0.05 | 0.00 | 95 | 1008.8 |
| 20260906063048 | 70 | 325 | 0.0 | 0.0 | 0.00 | 0.05 | 0.00 | 95 | 1009.1 |
| 20260906061542 | 70 | 325 | 0.0 | 0.0 | 0.00 | 0.05 | 0.00 | 95 | 1009.1 |
| 20260906060042 | 70 | 325 | 0.0 | 0.0 | 0.00 | 0.05 | 0.00 | 95 | 1009.2 |
| 20260906054541 | 70 | 325 | 0.0 | 0.0 | 0.00 | 0.05 | 0.00 | 95 | 1009.2 |
| 20260906053038 | 70 | 325 | 0.0 | 0.0 | 0.00 | 0.05 | 0.00 | 95 | 1009.3 |
| 20260906051553 | 70 | 325 | 0.0 | 0.0 | 0.00 | 0.05 | 0.00 | 95 | 1009.4 |
| 20260906050137 | 71 | 325 | 0.0 | 0.0 | 0.00 | 0.05 | 0.00 | 95 | 1009.6 |
| 20260906044541 | 71 | 325 | 0.0 | 0.0 | 0.00 | 0.05 | 0.00 | 95 | 1009.6 |
| 20260906043038 | 71 | 325 | 0.0 | 0.0 | 0.00 | 0.05 | 0.00 | 95 | 1009.5 |
| 20260906041532 | 71 | 325 | 0.0 | 0.0 | 0.00 | 0.05 | 0.00 | 95 | 1009.8 |
| 20260906040035 | 71 | 325 | 0.0 | 0.0 | 0.00 | 0.05 | 0.00 | 95 | 1009.7 |
| 20260906034534 | 71 | 325 | 0.0 | 0.0 | 0.00 | 0.05 | 0.05 | 95 | 1009.9 |
| 20260906033028 | 71 | 325 | 0.0 | 0.0 | 0.00 | 0.05 | 0.05 | 95 | 1009.9 |
| 20260906031536 | 71 | 325 | 0.0 | 0.0 | 0.00 | 0.05 | 0.05 | 95 | 1009.8 |
| 20260906030027 | 71 | 325 | 0.0 | 0.0 | 0.00 | 0.05 | 0.05 | 94 | 1009.7 |
| 20260906024526 | 72 | 325 | 0.0 | 0.0 | 0.00 | 0.05 | 0.05 | 94 | 1009.7 |
| 20260906023025 | 72 | 325 | 0.0 | 0.0 | 0.00 | 0.05 | 0.05 | 94 | 1009.7 |
| 20260906021525 | 72 | 325 | 0.0 | 0.0 | 0.00 | 0.05 | 0.05 | 94 | 1009.2 |
| 20260906020024 | 72 | 325 | 0.0 | 0.0 | 0.00 | 0.05 | 0.05 | 93 | 1009.4 |
| 20260906014528 | 72 | 325 | 0.0 | 0.0 | 0.00 | 0.05 | 0.05 | 93 | 1009.4 |
| 20260906013028 | 73 | 325 | 0.0 | 0.0 | 0.00 | 0.05 | 0.05 | 93 | 1009.3 |
| 20260906011523 | 73 | 325 | 0.0 | 0.0 | 0.00 | 0.05 | 0.05 | 92 | 1008.8 |
| 20260906010025 | 74 | 325 | 0.0 | 0.0 | 0.00 | 0.05 | 0.05 | 91 | 1008.7 |
| 20260906004521 | 74 | 325 | 0.0 | 0.0 | 0.00 | 0.05 | 0.05 | 90 | 1008.8 |
| 20260906003122 | 75 | 325 | 0.0 | 0.0 | 0.00 | 0.05 | 0.05 | 89 | 1008.7 |
| 20260906001521 | 76 | 325 | 0.0 | 0.0 | 0.00 | 0.05 | 0.05 | 88 | 1008.5 |
| 20260906000021 | 76 | 325 | 0.0 | 0.0 | 0.00 | 0.05 | 0.05 | 87 | 1008.3 |
| 20260905234520 | 77 | 325 | 0.0 | 0.0 | 0.00 | 0.05 | 0.05 | 86 | 1008.2 |
| 20260905233019 | 79 | 325 | 0.0 | 0.0 | 0.00 | 0.05 | 0.05 | 84 | 1008.0 |
| 20260905231525 | 80 | 325 | 0.0 | 0.0 | 0.00 | 0.05 | 0.05 | 82 | 1008.1 |
| 20260905230022 | 80 | 325 | 0.0 | 0.0 | 0.00 | 0.05 | 0.05 | 81 | 1008.1 |
| 20260905224518 | 82 | 325 | 0.0 | 0.0 | 0.00 | 0.05 | 0.05 | 79 | 1008.3 |
| 20260905223017 | 82 | 325 | 0.0 | 0.0 | 0.00 | 0.05 | 0.05 | 77 | 1008.1 |
| 20260905221517 | 82 | 325 | 0.0 | 0.0 | 0.00 | 0.05 | 0.05 | 77 | 1008.0 |
| 20260905220016 | 81 | 325 | 0.0 | 0.0 | 0.00 | 0.05 | 0.05 | 78 | 1007.7 |
| 20260905214517 | 82 | 325 | 0.0 | 0.0 | 0.00 | 0.05 | 0.05 | 77 | 1008.4 |
| 20260905213018 | 81 | 325 | 0.0 | 1.0 | 0.00 | 0.05 | 0.05 | 78 | 1008.5 |
| 20260905211516 | 79 | 325 | 0.0 | 0.0 | 0.00 | 0.05 | 0.05 | 85 | 1008.7 |
| 20260905210022 | 77 | 325 | 0.0 | 0.0 | 0.00 | 0.05 | 0.05 | 88 | 1008.6 |
| 20260905204514 | 76 | 325 | 0.0 | 0.0 | 0.00 | 0.05 | 0.05 | 89 | 1008.5 |
| 20260905203013 | 75 | 325 | 0.0 | 1.0 | 0.00 | 0.05 | 0.05 | 87 | 1008.5 |
| 20260905201513 | 75 | 325 | 1.0 | 4.0 | 0.00 | 0.05 | 0.05 | 88 | 1008.7 |
| 20260905200016 | 75 | 325 | 0.0 | 4.0 | 0.00 | 0.05 | 0.05 | 90 | 1008.9 |
| 20260905194512 | 75 | 325 | 0.0 | 0.0 | 0.00 | 0.05 | 0.05 | 93 | 1009.1 |
| 20260905193011 | 73 | 325 | 0.0 | 0.0 | 0.00 | 0.05 | 0.05 | 94 | 1008.9 |
| 20260905191510 | 72 | 325 | 0.0 | 0.0 | 0.00 | 0.05 | 0.05 | 93 | 1008.2 |
| 20260905190009 | 72 | 325 | 0.0 | 0.0 | 0.05 | 0.05 | 0.05 | 91 | 1008.2 |
| 20260905184511 | 72 | 325 | 0.0 | 8.0 | 0.05 | 0.05 | 0.05 | 90 | 1008.8 |
| 20260905183006 | 73 | 325 | 0.0 | 1.0 | 0.05 | 0.05 | 0.05 | 87 | 1009.1 |
| 20260905181505 | 79 | 325 | 0.0 | 12.0 | 0.05 | 0.05 | 0.05 | 73 | 1009.7 |
| 20260905180004 | 91 | 304 | 5.0 | 18.0 | 0.00 | 0.00 | 0.00 | 49 | 1009.7 |
| 20260905174510 | 95 | 267 | 0.0 | 1.0 | 0.00 | 0.00 | 0.00 | 53 | 1009.2 |
| 20260905173001 | 96 | 267 | 0.0 | 2.0 | 0.00 | 0.00 | 0.00 | 52 | 1009.1 |
| 20260905171634 | 96 | 267 | 0.0 | 3.0 | 0.00 | 0.00 | 0.00 | 56 | 1009.3 |
| 20260905170105 | 96 | 267 | 0.0 | 2.0 | 0.00 | 0.00 | 0.00 | 55 | 1009.8 |
| 20260905164600 | 96 | 267 | 0.0 | 3.0 | 0.00 | 0.00 | 0.00 | 55 | 1010.0 |
| 20260905163056 | 95 | 267 | 0.0 | 3.0 | 0.00 | 0.00 | 0.00 | 56 | 1010.1 |
| 20260905161550 | 94 | 267 | 0.0 | 1.0 | 0.00 | 0.00 | 0.00 | 57 | 1010.2 |
| 20260905160100 | 94 | 267 | 0.0 | 1.0 | 0.00 | 0.00 | 0.00 | 58 | 1010.4 |
| 20260905154603 | 93 | 267 | 0.0 | 0.0 | 0.00 | 0.00 | 0.00 | 58 | 1010.4 |
| 20260905153044 | 93 | 267 | 0.0 | 1.0 | 0.00 | 0.00 | 0.00 | 63 | 1010.4 |
| 20260905151541 | 92 | 267 | 0.0 | 4.0 | 0.00 | 0.00 | 0.00 | 64 | 1010.5 |
| 20260905150043 | 91 | 267 | 0.0 | 2.0 | 0.00 | 0.00 | 0.00 | 65 | 1010.5 |
| 20260905144538 | 90 | 267 | 0.0 | 4.0 | 0.00 | 0.00 | 0.00 | 67 | 1010.6 |
| 20260905143032 | 89 | 267 | 0.0 | 0.0 | 0.00 | 0.00 | 0.00 | 67 | 1010.6 |
| 20260905141533 | 88 | 267 | 0.0 | 0.0 | 0.00 | 0.00 | 0.00 | 70 | 1010.4 |
| 20260905140028 | 86 | 267 | 0.0 | 2.0 | 0.00 | 0.00 | 0.00 | 72 | 1010.3 |
| 20260905134525 | 85 | 267 | 0.0 | 1.0 | 0.00 | 0.00 | 0.00 | 78 | 1010.5 |
| 20260905133017 | 83 | 267 | 0.0 | 0.0 | 0.00 | 0.00 | 0.00 | 81 | 1010.7 |
| 20260905131529 | 80 | 267 | 0.0 | 0.0 | 0.00 | 0.00 | 0.00 | 85 | 1010.8 |
| 20260905130010 | 77 | 267 | 0.0 | 0.0 | 0.00 | 0.00 | 0.00 | 90 | 1011.0 |
| 20260905124506 | 76 | 267 | 0.0 | 0.0 | 0.00 | 0.00 | 0.00 | 93 | 1010.8 |
| 20260905123002 | 73 | 267 | 0.0 | 0.0 | 0.00 | 0.00 | 0.00 | 95 | 1010.8 |
| 20260905121502 | 71 | 267 | 0.0 | 0.0 | 0.00 | 0.00 | 0.00 | 96 | 1010.7 |
| 20260905120000 | 70 | 267 | 0.0 | 0.0 | 0.00 | 0.00 | 0.00 | 96 | 1010.8 |
| 20260905114609 | 70 | 267 | 0.0 | 0.0 | 0.00 | 0.00 | 0.00 | 95 | 1010.8 |
| 20260905113059 | 69 | 267 | 0.0 | 0.0 | 0.00 | 0.00 | 0.00 | 95 | 1010.7 |
| 20260905111627 | 69 | 267 | 0.0 | 0.0 | 0.00 | 0.00 | 0.00 | 95 | 1010.4 |
| 20260905110110 | 69 | 267 | 0.0 | 0.0 | 0.00 | 0.00 | 0.00 | 95 | 1010.3 |
| 20260905104617 | 69 | 267 | 0.0 | 0.0 | 0.00 | 0.00 | 0.00 | 95 | 1010.1 |
| 20260905103056 | 69 | 267 | 0.0 | 0.0 | 0.00 | 0.00 | 0.00 | 94 | 1010.2 |
| 20260905101556 | 70 | 267 | 0.0 | 0.0 | 0.00 | 0.00 | 0.00 | 95 | 1010.0 |
| 20260905100054 | 70 | 267 | 0.0 | 0.0 | 0.00 | 0.00 | 0.00 | 95 | 1009.7 |
| 20260905094709 | 70 | 267 | 0.0 | 0.0 | 0.00 | 0.00 | 0.00 | 95 | 1009.8 |
| 20260905093102 | 70 | 267 | 0.0 | 0.0 | 0.00 | 0.00 | 0.00 | 94 | 1009.8 |
| 20260905091556 | 70 | 267 | 0.0 | 0.0 | 0.00 | 0.00 | 0.00 | 94 | 1009.6 |
| 20260905090049 | 71 | 267 | 0.0 | 0.0 | 0.00 | 0.00 | 0.00 | 94 | 1009.7 |
| 20260905084558 | 71 | 267 | 0.0 | 0.0 | 0.00 | 0.00 | 0.00 | 94 | 1009.8 |
| 20260905083046 | 71 | 267 | 0.0 | 0.0 | 0.00 | 0.00 | 0.00 | 94 | 1010.1 |
| 20260905081545 | 71 | 267 | 0.0 | 0.0 | 0.00 | 0.00 | 0.00 | 94 | 1010.2 |
| 20260905080049 | 71 | 267 | 0.0 | 0.0 | 0.00 | 0.00 | 0.00 | 94 | 1010.6 |